When you browse on this site, cookies collect data to enhance your experience and personalize the content and advertising you see.
Visit our Privacy Policy to learn more. By continuing to use the site, you agree to this use of cookies and data.
  • In Portugal
  • List of Countries
  • For 7 days
  • Water Temperature
  • Satellite Maps
  • Weather Map
  • Weather Widgets
  • user-avatar
    Login

    Hourly Weather Wien

    Today, 24 January, Thursday

    Time Temperature Precipitation Wind Pressure Humidity
    00:00 -2°C° 0 mm 1 mps 733 mmHg 81%
    01:00 -2°C° 0 mm 1 mps 734 mmHg 82%
    02:00 -2°C° 0 mm 1 mps 734 mmHg 82%
    03:00 -2°C° 0 mm 1 mps 734 mmHg 82%
    04:00 -2°C° 0 mm 1 mps 734 mmHg 82%
    05:00 -4°C° 0 mm 2 mps 734 mmHg 80%
    06:00 -4°C° 0 mm 2 mps 735 mmHg 78%
    07:00 -4°C° 0 mm 2 mps 735 mmHg 77%
    08:00 -5°C° 0 mm 3 mps 735 mmHg 73%
    09:00 -5°C° 0 mm 3 mps 735 mmHg 70%
    10:00 -5°C° 0 mm 4 mps 735 mmHg 67%
    11:00 -4°C° 0 mm 4 mps 735 mmHg 64%
    12:00 -4°C° 0 mm 4 mps 735 mmHg 61%
    13:00 -4°C° 0 mm 5 mps 735 mmHg 58%
    14:00 -3°C° 0 mm 4 mps 735 mmHg 58%
    15:00 -3°C° 0 mm 4 mps 735 mmHg 59%
    16:00 -3°C° 0 mm 4 mps 735 mmHg 59%
    17:00 -3°C° 0 mm 4 mps 736 mmHg 61%
    18:00 -4°C° 0 mm 4 mps 736 mmHg 64%
    19:00 -4°C° 0 mm 4 mps 736 mmHg 67%
    20:00 -5°C° 0 mm 5 mps 737 mmHg 67%
    21:00 -5°C° 0 mm 5 mps 737 mmHg 66%
    22:00 -5°C° 0 mm 5 mps 738 mmHg 66%
    23:00 -5°C° 0 mm 5 mps 738 mmHg 66%

    Tomorrow, 25 January, Friday

    Time Temperature Precipitation Wind Pressure Humidity
    00:00 -5°C° 0 mm 6 mps 738 mmHg 66%
    01:00 -5°C° 0 mm 6 mps 738 mmHg 65%
    02:00 -5°C° 0 mm 6 mps 738 mmHg 66%
    03:00 -5°C° 0 mm 6 mps 738 mmHg 67%
    04:00 -5°C° 0 mm 6 mps 738 mmHg 67%
    05:00 -5°C° 0 mm 6 mps 739 mmHg 68%
    06:00 -5°C° 0 mm 6 mps 739 mmHg 68%
    07:00 -5°C° 0 mm 6 mps 739 mmHg 69%
    08:00 -5°C° 0 mm 6 mps 740 mmHg 67%
    09:00 -5°C° 0 mm 6 mps 740 mmHg 65%
    10:00 -4°C° 0 mm 7 mps 740 mmHg 63%
    11:00 -4°C° 0 mm 7 mps 740 mmHg 60%
    12:00 -3°C° 0 mm 7 mps 740 mmHg 58%
    13:00 -3°C° 0 mm 7 mps 740 mmHg 55%
    14:00 -3°C° 0 mm 7 mps 741 mmHg 57%
    15:00 -3°C° 0 mm 6 mps 741 mmHg 58%
    16:00 -2°C° 0 mm 5 mps 741 mmHg 59%
    17:00 -4°C° 0 mm 6 mps 741 mmHg 61%
    18:00 -4°C° 0 mm 6 mps 742 mmHg 62%
    19:00 -4°C° 0 mm 6 mps 743 mmHg 64%
    20:00 -4°C° 0 mm 6 mps 743 mmHg 65%
    21:00 -6°C° 0 mm 7 mps 743 mmHg 65%
    22:00 -6°C° 0 mm 7 mps 743 mmHg 66%
    23:00 -6°C° 0 mm 7 mps 743 mmHg 65%

    Day after tomorrow, 26 January, Saturday

    Time Temperature Precipitation Wind Pressure Humidity
    00:00 -5°C° 0 mm 6 mps 743 mmHg 65%
    01:00 -5°C° 0 mm 6 mps 743 mmHg 64%
    02:00 -5°C° 0 mm 6 mps 743 mmHg 62%
    03:00 -5°C° 0 mm 6 mps 743 mmHg 60%
    04:00 -5°C° 0 mm 6 mps 742 mmHg 58%
    05:00 -5°C° 0 mm 6 mps 742 mmHg 57%
    06:00 -5°C° 0 mm 6 mps 742 mmHg 56%
    07:00 -5°C° 0 mm 6 mps 742 mmHg 54%
    08:00 -4°C° 0 mm 6 mps 741 mmHg 51%
    09:00 -3°C° 0 mm 6 mps 741 mmHg 48%
    10:00 -1°C° 0 mm 6 mps 741 mmHg 45%
    11:00 +1°C° 0 mm 6 mps 740 mmHg 46%
    12:00 0°C° 0 mm 7 mps 739 mmHg 48%
    13:00 +2°C° 0 mm 7 mps 739 mmHg 50%
    14:00 +2°C° 0.2 mm 6 mps 738 mmHg 57%
    15:00 +2°C° 0.2 mm 6 mps 738 mmHg 63%
    16:00 +2°C° 0.2 mm 6 mps 737 mmHg 69%
    17:00 +2°C° 0.1 mm 6 mps 737 mmHg 72%
    18:00 +2°C° 0.1 mm 6 mps 737 mmHg 74%
    19:00 +2°C° 0.1 mm 6 mps 737 mmHg 76%
    20:00 +2°C° 0.2 mm 6 mps 737 mmHg 77%
    21:00 +2°C° 0.2 mm 6 mps 737 mmHg 78%
    22:00 +2°C° 0.2 mm 6 mps 737 mmHg 79%
    23:00 +2°C° 0.3 mm 6 mps 737 mmHg 79%

    27 January, Sunday

    Time Temperature Precipitation Wind Pressure Humidity
    00:00 +2°C° 0.3 mm 6 mps 737 mmHg 80%
    01:00 +2°C° 0.3 mm 6 mps 737 mmHg 80%
    02:00 +2°C° 0.3 mm 5 mps 736 mmHg 80%
    03:00 +2°C° 0.3 mm 5 mps 736 mmHg 81%
    04:00 +3°C° 0.3 mm 4 mps 735 mmHg 81%
    05:00 +2°C° 0 mm 3 mps 735 mmHg 83%
    06:00 +2°C° 0 mm 2 mps 735 mmHg 85%
    07:00 +1°C° 0 mm 2 mps 735 mmHg 87%
    08:00 +2°C° 0 mm 2 mps 734 mmHg 84%
    09:00 +3°C° 0 mm 2 mps 734 mmHg 82%
    10:00 +4°C° 0 mm 2 mps 734 mmHg 79%
    11:00 +4°C° 0 mm 2 mps 733 mmHg 76%
    12:00 +4°C° 0 mm 2 mps 732 mmHg 73%
    13:00 +3°C° 0 mm 3 mps 731 mmHg 70%
    14:00 +4°C° 0 mm 2 mps 731 mmHg 73%
    15:00 +3°C° 0 mm 2 mps 730 mmHg 76%
    16:00 +2°C° 0 mm 2 mps 730 mmHg 79%
    17:00 +2°C° 0 mm 2 mps 730 mmHg 82%
    18:00 +2°C° 0 mm 1 mps 730 mmHg 84%
    19:00 +1°C° 0 mm 1 mps 729 mmHg 87%
    20:00 +1°C° 0 mm 1 mps 729 mmHg 88%
    21:00 +1°C° 0 mm 1 mps 729 mmHg 89%
    22:00 0°C° 0 mm 0 mps 729 mmHg 90%
    23:00 +1°C° 0.2 mm 1 mps 729 mmHg 90%

    28 January, Monday

    Time Temperature Precipitation Wind Pressure Humidity
    00:00 +1°C° 0.2 mm 1 mps 729 mmHg 91%
    01:00 +2°C° 0.2 mm 1 mps 729 mmHg 91%
    02:00 +1°C° 0.1 mm 1 mps 728 mmHg 91%
    03:00 +1°C° 0.1 mm 1 mps 728 mmHg 91%
    04:00 +1°C° 0.1 mm 1 mps 727 mmHg 91%
    05:00 +1°C° 0 mm 1 mps 727 mmHg 91%
    06:00 +1°C° 0 mm 1 mps 727 mmHg 92%
    07:00 +1°C° 0 mm 1 mps 727 mmHg 93%
    08:00 +1°C° 0 mm 1 mps 727 mmHg 92%
    09:00 +2°C° 0 mm 1 mps 727 mmHg 92%
    10:00 +1°C° 0 mm 0 mps 727 mmHg 92%
    11:00 +3°C° 0.1 mm 1 mps 727 mmHg 89%
    12:00 +4°C° 0.1 mm 1 mps 727 mmHg 87%
    13:00 +3°C° 0.1 mm 2 mps 727 mmHg 84%
    14:00 +3°C° 0.1 mm 2 mps 727 mmHg 84%
    15:00 +3°C° 0.1 mm 2 mps 727 mmHg 84%
    16:00 +4°C° 0.1 mm 1 mps 727 mmHg 84%
    17:00 +3°C° 0 mm 2 mps 728 mmHg 83%
    18:00 +3°C° 0 mm 2 mps 728 mmHg 83%
    19:00 +2°C° 0 mm 3 mps 729 mmHg 82%
    20:00 +1°C° 0 mm 4 mps 730 mmHg 81%
    21:00 +1°C° 0 mm 4 mps 730 mmHg 80%
    22:00 +1°C° 0 mm 5 mps 731 mmHg 79%
    23:00 +1°C° 0 mm 5 mps 731 mmHg 80%

    29 January, Tuesday

    Time Temperature Precipitation Wind Pressure Humidity
    00:00 +1°C° 0 mm 5 mps 732 mmHg 81%
    01:00 0°C° 0 mm 5 mps 733 mmHg 82%
    02:00 0°C° 0 mm 5 mps 733 mmHg 79%
    03:00 -1°C° 0 mm 6 mps 734 mmHg 77%
    04:00 -2°C° 0 mm 6 mps 735 mmHg 75%
    05:00 -2°C° 0 mm 6 mps 736 mmHg 73%
    06:00 -2°C° 0 mm 6 mps 736 mmHg 71%
    07:00 -3°C° 0 mm 6 mps 737 mmHg 69%
    08:00 -2°C° 0 mm 7 mps 737 mmHg 66%
    09:00 -2°C° 0 mm 7 mps 738 mmHg 64%
    10:00 -1°C° 0 mm 7 mps 739 mmHg 61%
    11:00 -1°C° 0 mm 6 mps 738 mmHg 60%
    12:00 +1°C° 0 mm 6 mps 738 mmHg 59%
    13:00 +2°C° 0 mm 6 mps 738 mmHg 58%
    14:00 +1°C° 0 mm 5 mps 738 mmHg 60%
    15:00 +1°C° 0 mm 4 mps 738 mmHg 62%
    16:00 +1°C° 0 mm 3 mps 739 mmHg 64%
    17:00 +1°C° 0 mm 3 mps 739 mmHg 67%
    18:00 +1°C° 0 mm 2 mps 739 mmHg 69%
    19:00 -1°C° 0 mm 2 mps 740 mmHg 72%
    20:00 -1°C° 0 mm 2 mps 740 mmHg 73%
    21:00 -1°C° 0 mm 2 mps 740 mmHg 75%
    22:00 -2°C° 0 mm 2 mps 740 mmHg 76%
    23:00 -2°C° 0 mm 2 mps 740 mmHg 75%
    Show more